Stations météo

réclame
Mon MeteoGroup
Sevilla/San Pablo, Espagne (8391): Température de l'air & dewpoint: 18.01.2018 04:00:00 - 24.01.2018 04:00:00 (CET)Sevilla/San Pablo, Espagne (8391): Vitesse du vent: 18.01.2018 04:00:00 - 24.01.2018 04:00:00 (CET)Sevilla/San Pablo, Espagne (8391): Direction du vent: 18.01.2018 04:00:00 - 24.01.2018 04:00:00 (CET)Sevilla/San Pablo, Espagne (8391): reduced air pressure: 18.01.2018 04:00:00 - 24.01.2018 04:00:00 (CET)Sevilla/San Pablo, Espagne (8391): visibility: 18.01.2018 04:00:00 - 24.01.2018 04:00:00 (CET)
Date & Time tt [°C] td [°C] ff [km/h] ff [knt] dd ppp [hPa] vv [km]
24.01.2018 04:00:00 6,7 6,0 2 1 NNE 1027,1 -
24.01.2018 03:00:00 6,9 6,2 0 0 N 1027,2 -
24.01.2018 02:00:00 6,9 6,0 4 2 ESE 1027,3 -
24.01.2018 01:00:00 8,2 6,9 0 0 N 1027,5 5
24.01.2018 00:00:00 8,5 7,4 4 2 ESE 1027,6 -
23.01.2018 23:00:00 9,2 7,9 4 2 SSE 1027,4 -
23.01.2018 22:00:00 10,3 8,9 4 2 SSE 1027,2 6
23.01.2018 21:00:00 11,7 9,3 2 1 SSE 1027,1 -
23.01.2018 20:00:00 14,5 9,9 4 2 SSW 1026,8 -
23.01.2018 19:00:00 17,1 9,8 4 2 SW 1026,4 20
23.01.2018 18:00:00 19,5 10,6 0 0 N 1025,9 -
23.01.2018 17:00:00 19,8 9,4 0 0 N 1025,8 -
23.01.2018 16:00:00 18,9 9,0 4 2 SE 1025,8 30
23.01.2018 15:00:00 17,8 9,7 4 2 ENE 1026,2 -
23.01.2018 14:00:00 16,4 9,4 4 2 NE 1027,0 -
23.01.2018 13:00:00 14,8 8,6 8 4 NE 1027,9 30
23.01.2018 12:00:00 13,3 8,4 5 3 NE 1028,8 -
23.01.2018 11:00:00 11,7 8,5 11 6 NNE 1028,9 -
23.01.2018 10:00:00 10,0 8,1 0 0 N 1028,4 2,5
23.01.2018 09:00:00 7,7 6,6 2 1 E 1027,7 -
23.01.2018 08:00:00 7,0 6,3 4 2 NE 1027,2 -
23.01.2018 07:00:00 6,1 5,4 0 0 N 1027,0 20
23.01.2018 06:00:00 6,6 5,7 4 2 N 1027,1 -
23.01.2018 05:00:00 7,0 6,3 4 2 ENE 1027,0 -
23.01.2018 04:00:00 7,5 6,7 0 0 N 1027,3 9
23.01.2018 03:00:00 8,0 6,8 4 2 ESE 1027,4 -
23.01.2018 02:00:00 9,0 8,1 2 1 ENE 1027,5 -
23.01.2018 01:00:00 10,0 8,9 5 3 ENE 1027,8 20
23.01.2018 00:00:00 9,9 8,5 4 2 ENE 1028,0 -
22.01.2018 23:00:00 10,0 8,8 4 2 E 1027,7 -
22.01.2018 22:00:00 10,4 9,0 5 3 ESE 1027,7 20
22.01.2018 21:00:00 11,7 9,6 2 1 ESE 1027,5 -
22.01.2018 20:00:00 13,3 10,3 4 2 ESE 1027,4 -
22.01.2018 19:00:00 16,4 10,7 0 0 N 1026,8 30
22.01.2018 18:00:00 19,7 11,2 0 0 N 1026,6 -
22.01.2018 17:00:00 19,4 11,3 2 1 WNW 1026,7 -
22.01.2018 16:00:00 18,6 11,2 4 2 WNW 1026,8 30
22.01.2018 15:00:00 17,8 11,1 2 1 NE 1027,2 -
22.01.2018 14:00:00 16,5 11,3 4 2 ENE 1028,1 -
22.01.2018 13:00:00 15,0 10,3 9 5 NE 1029,1 20
22.01.2018 12:00:00 13,6 10,0 5 3 ENE 1030,0 -
22.01.2018 11:00:00 11,7 9,3 9 5 NE 1030,4 -
22.01.2018 10:00:00 8,5 7,6 5 3 ESE 1030,2 8
22.01.2018 09:00:00 6,9 6,5 4 2 E 1029,8 -
22.01.2018 08:00:00 6,4 6,0 4 2 NNE 1029,6 -
22.01.2018 07:00:00 6,5 6,1 5 3 N 1029,5 4,2
22.01.2018 06:00:00 6,2 5,6 2 1 NW 1029,3 -
22.01.2018 05:00:00 6,4 5,8 8 4 N 1029,2 -
22.01.2018 04:00:00 6,4 5,5 4 2 E 1029,6 6
22.01.2018 03:00:00 6,5 5,6 5 3 ESE 1029,8 -
22.01.2018 02:00:00 7,7 6,8 0 0 N 1030,0 -
22.01.2018 01:00:00 7,8 6,7 2 1 NNW 1030,4 9
22.01.2018 00:00:00 8,3 7,1 8 4 ESE 1030,7 -
21.01.2018 23:00:00 9,3 7,7 0 0 N 1030,7 -
21.01.2018 22:00:00 10,5 8,8 4 2 ESE 1030,5 25
21.01.2018 21:00:00 12,2 9,2 5 3 S 1030,5 -
21.01.2018 20:00:00 13,4 9,9 8 4 S 1030,2 -
21.01.2018 19:00:00 14,8 10,2 8 4 SSW 1029,4 30
21.01.2018 18:00:00 16,4 10,7 13 7 SW 1029,2 -
21.01.2018 17:00:00 18,3 8,8 2 1 WSW 1029,1 -
21.01.2018 16:00:00 17,6 9,1 0 0 N 1029,2 30
21.01.2018 15:00:00 16,4 8,8 2 1 N 1029,6 -
21.01.2018 14:00:00 15,3 9,6 0 0 N 1030,5 -
21.01.2018 13:00:00 12,9 10,0 0 0 N 1031,8 15
21.01.2018 12:00:00 9,0 8,9 0 0 N 1032,3 -
21.01.2018 11:00:00 6,2 6,1 0 0 N 1032,6 -
21.01.2018 10:00:00 5,0 4,9 0 0 N 1031,9 0,2
21.01.2018 09:00:00 4,1 3,8 4 2 NNE 1031,1 -
21.01.2018 08:00:00 4,3 3,9 0 0 N 1030,8 -
21.01.2018 07:00:00 4,7 4,3 0 0 N 1030,4 0,2
21.01.2018 06:00:00 5,3 5,0 0 0 N 1030,3 -
21.01.2018 05:00:00 4,7 4,1 0 0 N 1030,2 -
21.01.2018 04:00:00 5,1 4,4 0 0 N 1030,2 0,9
21.01.2018 03:00:00 5,5 4,8 0 0 N 1030,4 -
21.01.2018 02:00:00 5,9 5,0 4 2 SSE 1030,6 -
21.01.2018 01:00:00 7,2 6,1 0 0 N 1030,9 9
21.01.2018 00:00:00 7,9 5,9 0 0 N 1030,9 -
20.01.2018 23:00:00 9,9 7,0 0 0 N 1030,6 -
20.01.2018 22:00:00 11,7 7,6 11 6 SW 1030,3 30
20.01.2018 21:00:00 12,8 8,7 15 8 SSW 1030,1 -
20.01.2018 20:00:00 12,2 9,5 8 4 SSE 1029,8 -
20.01.2018 19:00:00 13,8 10,1 8 4 S 1029,0 30
20.01.2018 18:00:00 15,7 9,3 13 7 SW 1028,4 -
20.01.2018 17:00:00 16,6 8,7 8 4 SSW 1028,4 -
20.01.2018 16:00:00 16,7 8,7 4 2 SW 1028,3 30
20.01.2018 15:00:00 16,4 9,0 2 1 SW 1028,6 -
20.01.2018 14:00:00 15,2 9,3 0 0 N 1029,3 -
20.01.2018 13:00:00 13,9 9,8 0 0 N 1030,3 20
20.01.2018 12:00:00 11,5 8,9 0 0 N 1030,7 -
20.01.2018 11:00:00 8,4 7,1 0 0 N 1030,5 -
20.01.2018 10:00:00 6,5 5,8 0 0 N 1030,2 5
20.01.2018 09:00:00 4,2 3,6 0 0 N 1029,4 -
20.01.2018 08:00:00 4,3 3,7 0 0 N 1028,7 -
20.01.2018 07:00:00 4,6 4,0 2 1 NW 1027,9 2,0
20.01.2018 06:00:00 4,9 4,3 4 2 NNW 1027,0 -
20.01.2018 05:00:00 5,2 4,5 0 0 N 1026,7 -
20.01.2018 04:00:00 5,8 4,9 0 0 N 1027,0 3,0
20.01.2018 03:00:00 6,3 5,6 0 0 N 1026,6 -
20.01.2018 02:00:00 7,0 5,8 0 0 N 1026,2 -
20.01.2018 01:00:00 7,2 6,1 4 2 SE 1026,5 7
20.01.2018 00:00:00 7,8 6,6 5 3 S 1026,2 -
19.01.2018 23:00:00 8,4 6,7 0 0 N 1025,7 -
19.01.2018 22:00:00 9,8 7,7 0 0 N 1025,4 9
19.01.2018 21:00:00 10,2 7,8 2 1 SSE 1024,9 -
19.01.2018 20:00:00 11,8 8,1 2 1 SW 1023,7 -
19.01.2018 19:00:00 15,4 8,9 8 4 WSW 1022,6 20
19.01.2018 18:00:00 17,6 9,0 4 2 S 1022,0 -
19.01.2018 17:00:00 18,5 8,8 5 3 SSW 1021,2 -
19.01.2018 16:00:00 17,8 8,5 9 5 S 1021,0 25
19.01.2018 15:00:00 17,0 7,8 0 0 N 1021,3 -
19.01.2018 14:00:00 15,7 7,8 2 1 E 1021,3 -
19.01.2018 13:00:00 13,8 8,3 4 2 NNW 1021,8 12
19.01.2018 12:00:00 11,5 8,5 4 2 NNE 1021,9 -
19.01.2018 11:00:00 8,8 7,2 8 4 N 1021,7 -
19.01.2018 10:00:00 6,7 6,0 0 0 N 1021,0 0,9
19.01.2018 09:00:00 5,7 5,0 0 0 N 1020,3 -
19.01.2018 08:00:00 5,9 4,9 0 0 N 1019,6 -
19.01.2018 07:00:00 6,5 5,6 2 1 NNW 1019,1 30
19.01.2018 06:00:00 7,0 6,1 4 2 NE 1018,8 -
19.01.2018 05:00:00 7,5 6,4 4 2 NNW 1019,2 -
19.01.2018 04:00:00 8,3 6,8 0 0 N 1019,5 30
19.01.2018 03:00:00 8,5 6,8 0 0 N 1019,4 -
19.01.2018 02:00:00 9,1 7,0 4 2 NNW 1019,4 -
19.01.2018 01:00:00 9,9 7,0 0 0 N 1019,3 30
19.01.2018 00:00:00 10,7 7,6 0 0 N 1019,3 -
18.01.2018 23:00:00 12,0 7,7 15 8 ENE 1019,4 -
18.01.2018 22:00:00 12,0 8,1 15 8 NE 1019,0 25
18.01.2018 21:00:00 12,0 8,7 11 6 NE 1019,2 -
18.01.2018 20:00:00 12,5 9,0 13 7 NNE 1019,4 -
18.01.2018 19:00:00 14,4 9,0 11 6 NE 1019,4 30
18.01.2018 18:00:00 16,1 8,7 11 6 ENE 1019,3 -
18.01.2018 17:00:00 16,4 9,1 11 6 NE 1019,1 -
18.01.2018 16:00:00 16,8 9,2 13 7 NE 1019,2 30
18.01.2018 15:00:00 17,5 8,7 16 9 NE 1019,7 -
18.01.2018 14:00:00 17,2 9,2 - - - 1020,4 -
18.01.2018 13:00:00 15,8 8,7 18 10 NE 1021,3 30
18.01.2018 12:00:00 14,6 7,9 22 12 NE 1022,0 -
18.01.2018 11:00:00 12,3 5,9 24 13 NE 1022,2 -
18.01.2018 10:00:00 10,7 4,9 29 16 NE 1021,4 30
18.01.2018 09:00:00 8,9 4,1 22 12 NE 1021,1 -
18.01.2018 08:00:00 9,3 4,3 21 11 NE 1020,8 -
18.01.2018 07:00:00 10,2 4,1 22 12 NE 1020,6 30
18.01.2018 06:00:00 10,8 4,0 22 12 NE 1020,6 -
18.01.2018 05:00:00 11,6 4,3 26 14 ENE 1020,5 -
18.01.2018 04:00:00 11,1 4,5 28 15 NE 1020,8 30

tt = Température de l'air
td = dewpoint
ff = Vitesse du vent
dd = Direction du vent
ppp = reduced air pressure
vv = visibility

stations d'obs. à proximité